Location: Newark
(19.2128°S, 49.7858°W)
Time: 04:51:07
(UTC+00:00)

Envisat - Pass Details

Date: 31 August 2019
Orbit: 764 x 766 km, 98.1° (Epoch: 17 September)

Event Time Altitude Azimuth Distance (km) Brightness Sun altitude
Rises 23:07:29 0° 191° (SSW) 3,251 6.4 -28.2°
Reaches altitude 10° 23:10:24 10° 208° (SSW) 2,318 5.8 -28.9°
Maximum altitude 23:13:55 19° 252° (WSW) 1,763 5.5 -29.7°
Drops below altitude 10° 23:17:26 10° 297° (WNW) 2,302 6.2 -30.6°
Sets 23:20:21 0° 314° (NW) 3,220 6.8 -31.2°
